#timestamp,LO_Frequency,Hit,StdDev 
1651060815.3,286047002.6,N
1651060835.1,286047002.2,N
1651060855.9,286047002.6,N
1651060875.7,286047002.2,N
1651060895.5,286047002.8,N
1651060915.4,286047000.0,N
1651060935.2,286046999.9,N
1651060955.0,286047000.1,N
1651060955.9,286047000.1,N
1651060975.8,286047002.4,N
1651060995.6,286047000.1,N
1651061015.5,286047000.6,N
1651061035.3,286047001.0,N
1651061055.1,286047001.0,N
1651061075.9,286046998.4,N
1651061095.7,286046998.1,N
1651061115.5,286046998.6,N
1651061135.4,286047001.2,N
1651061155.2,286046998.3,N
1651061175.1,286047001.2,N
1651061176.0,286047001.2,N
1651061195.8,286047000.8,N
1651061215.6,286047002.3,N
1651061235.5,286046999.8,N
1651061255.3,286047002.6,N
1651061275.1,286047002.0,N
1651061295.9,286047000.2,N
1651061315.3,286046999.9,N
1651061335.1,286047002.1,N
1651061355.9,286047002.0,N
1651061375.7,286047002.4,N
1651061395.5,286047002.2,N
1651061415.4,286047002.1,N
1651061435.2,286046999.8,N
1651061455.1,286047002.3,N
1651061456.0,286047002.3,N
1651061475.8,286047002.6,N
1651061495.6,286046999.9,N
1651061515.5,286047002.1,N
1651061535.3,286047002.4,N
1651061555.2,286047003.8,N
1651061575.9,286047004.3,N
1651061595.7,286047002.2,N
1651061615.6,286046999.8,N
1651061635.4,286047000.1,N
1651061655.2,286047001.8,N
1651061675.1,286047001.6,N
1651061676.0,286047001.6,N
1651061695.8,286047001.3,N
1651061715.7,286047004.4,Y
1651061735.5,286047001.0,P
1651061755.3,286047000.7,N
1651061775.2,286046999.9,N
1651061795.0,286047002.3,Y
1651061795.9,286047002.3,P
1651061815.8,286047000.4,N
1651061835.6,286047000.4,N
1651061855.4,286047000.6,N
1651061875.3,286047002.7,Y
1651061895.1,286047002.7,P
1651061915.9,286047001.0,N
1651061935.7,286047000.7,N
1651061955.5,286047000.7,N
1651061975.4,286046998.3,N
1651061995.2,286046998.8,N
1651062015.0,286046998.6,N
1651062015.9,286046998.6,N
1651062035.8,286047001.1,N
1651062055.6,286047001.1,N
1651062075.4,286047000.6,N
1651062095.3,286047000.6,N
1651062115.1,286047000.6,N
1651062135.9,286046998.2,N
1651062155.7,286046998.6,N
1651062175.5,286046998.1,N
1651062195.4,286047000.4,N
1651062215.2,286047000.8,N
1651062235.1,286046998.2,N
1651062236.0,286046998.2,N
1651062255.8,286046997.1,N
1651062275.6,286046996.6,N
1651062295.5,286046998.9,N
1651062315.3,286046998.8,N
1651062335.2,286046998.7,N
1651062355.9,286046998.1,N
1651062375.7,286046998.2,N
1651062395.6,286047001.0,N
1651062415.4,286047000.4,N
1651062435.2,286047000.1,N
1651062455.1,286047000.9,N
1651062456.0,286047000.9,N
1651062475.8,286047000.6,N
1651062495.7,286047000.8,N
1651062515.5,286047000.0,N
1651062535.4,286047000.7,N
1651062555.2,286046998.7,N
1651062575.0,286046998.9,N
1651062575.9,286046998.9,N
1651062595.8,286046999.0,N
1651062615.6,286046998.8,N
1651062635.5,286046999.3,N
1651062655.3,286047001.1,N
1651062675.1,286046998.4,N
1651062695.9,286047000.4,N
1651062715.7,286046999.7,N
1651062735.6,286046999.8,N
1651062755.4,286047000.1,N
1651062775.2,286047000.1,N
1651062795.1,286047002.5,N
1651062796.0,286047002.5,N
1651062815.8,286047002.8,N
1651062835.7,286047001.6,N
1651062855.5,286047002.5,N
1651062875.3,286047000.1,N
1651062895.2,286047000.5,N
1651062915.0,286047000.3,N
1651062915.9,286047000.3,N
1651062935.8,286047002.5,N
1651062955.6,286047002.1,N
1651062975.4,286047000.2,N
1651062995.3,286047000.0,N
1651063015.1,286047000.4,N
1651063035.9,286047000.9,N
1651063055.7,286046999.8,N
1651063075.5,286047002.4,N
1651063095.4,286047002.3,N
1651063115.2,286047002.5,N
1651063135.1,286047002.5,N
1651063136.0,286047002.5,N
1651063155.8,286047002.7,N
1651063175.6,286047000.7,N
1651063195.5,286047000.0,N
1651063215.3,286046998.5,N
1651063235.2,286047001.0,N
1651063255.9,286046998.2,N
1651063275.7,286046998.1,N
1651063295.6,286047000.4,N
1651063315.4,286047001.1,N
1651063335.2,286047001.1,N
1651063355.1,286047000.9,N
1651063356.0,286047000.9,N
1651063375.8,286046999.7,N
1651063395.7,286047002.4,N
1651063415.5,286047001.9,N
1651063435.3,286047001.7,N
1651063455.2,286047001.9,N
1651063475.0,286047002.1,N
1651063475.9,286047002.1,N
1651063495.8,286047002.8,N
1651063515.6,286047000.1,N
1651063535.4,286047000.9,N
1651063555.3,286047000.1,N
1651063575.1,286047002.3,N
1651063595.9,286046999.9,N
1651063615.7,286047002.8,N
1651063635.5,286047002.8,N
1651063655.4,286046999.7,N
1651063675.2,286047002.8,N
1651063695.0,286047002.7,N
1651063695.9,286047002.7,N
1651063715.8,286047000.5,N
1651063735.6,286047000.3,N
1651063755.5,286046998.5,N
1651063775.7,286046998.1,N
1651063795.5,286046999.8,N
1651063815.4,286046998.6,N
1651063835.2,286047000.8,N
1651063855.0,286047000.9,N
1651063855.9,286047000.9,N
1651063875.8,286046999.8,N
1651063895.6,286047000.2,N
1651063915.5,286047002.8,N
1651063935.3,286047000.3,N
1651063955.1,286047000.1,N
1651063975.9,286046999.7,N
1651063995.7,286047000.1,N
1651064015.5,286047002.8,N
1651064035.4,286047000.5,N
1651064055.2,286047000.8,N
1651064075.1,286047001.1,N
1651064076.0,286047001.1,N
1651064095.8,286047000.8,N
1651064115.6,286047000.7,N
1651064135.5,286046998.1,N
1651064155.3,286046999.4,N
1651064175.1,286046996.8,N
1651064195.9,286046998.2,N
1651064215.7,286047000.9,N
1651064235.6,286047000.9,N
1651064255.4,286046998.5,N
1651064275.2,286046997.1,N
1651064295.1,286046997.9,N
1651064296.0,286046997.9,N
1651064315.8,286046995.0,Y
1651064335.7,286046997.1,P
1651064355.5,286046994.9,P
1651064375.3,286046995.1,N
1651064395.2,286046995.9,N
